STARLINK-1570 (46059 NORAD) Tracking and Keplerian Element Data

This shows tracking and keplerian element data for the satellite.

Feedback or suggestion? Click here.




ElementValue
Catalog46059
NameSTARLINK-1570
Epoch Orbit1810
Epoch Day330.75537009
Epoch Year2020
RAAN140.4215
Inclination53.0012
Eccentricity0.0002209
Argument of Perigee88.5103
Mean Anonmoly271.6138
Mean Motion15.05585904
Decay Rate6.61E-06
L11 46059U 20055AJ 20330.75537009 .00000661 00000-0 64535-4 0 9990
L22 46059 53.0012 140.4215 0002209 88.5103 271.6138 15.05585904 18102

Live tracking and technical data element details for STARLINK-1570 (NORAD 46059). STARLINK-1570 can be tracked NOW for your location showing map with azimuth and elevation plus other details from your city location.

Track the satellite on the map from your city or location and see movement details for azimuth, elevation, latitude, longitude, range, height, and movement on the map or in text.







IsCatalogInMostPopularTable: catalog: 46059, numindb: 23
Update: records affected: 1



GetName: 46059 STARLINK-1570

Hit Count: updated at: Fri, 27 Nov 2020 00:14:58 GMT